CW9688 Weather Reports


Display with metric or nautical units.
time (UTC)temp
F
wind
direction
speed
MPH
gust
MPH
rain 1hr
in
rain 24hr
in
rain mn
in
humidity
%
barometer
mb
20260901111804 62 180 3.0 6.0 0.00 0.08 0.00 84 1014.3
20260901111304 62 190 3.0 6.0 0.00 0.08 0.00 85 1014.3
20260901105305 62 186 1.0 3.0 0.00 0.08 0.00 86 1014.3
20260901103305 62 181 2.0 3.0 0.00 0.08 0.00 88 1014.3
20260901102805 62 171 2.0 5.0 0.00 0.08 0.00 88 1014.3
20260901101304 62 173 2.0 5.0 0.00 0.08 0.00 89 1014.3
20260901100304 61 167 2.0 3.0 0.00 0.08 0.00 89 1014.3
20260901095804 61 174 1.0 3.0 0.00 0.08 0.00 89 1014.3
20260901093304 61 202 0.0 0.0 0.00 0.08 0.00 88 1014.3
20260901092305 62 202 0.0 0.0 0.00 0.08 0.00 87 1014.3
20260901091804 62 202 0.0 1.0 0.00 0.08 0.00 87 1014.3
20260901091304 62 202 0.0 1.0 0.00 0.08 0.00 86 1014.3
20260901090804 62 202 0.0 0.0 0.00 0.08 0.00 86 1014.3
20260901090304 63 202 0.0 2.0 0.00 0.08 0.00 85 1014.3
20260901084804 63 210 1.0 3.0 0.00 0.08 0.00 87 1014.3
20260901084304 63 249 1.0 2.0 0.00 0.08 0.00 87 1014.3
20260901083804 62 273 2.0 5.0 0.00 0.08 0.00 87 1014.3
20260901082804 63 63 0.0 0.0 0.00 0.08 0.00 86 1014.3
20260901081304 63 63 0.0 1.0 0.00 0.08 0.00 86 1014.3
20260901080804 63 63 0.0 1.0 0.00 0.08 0.00 86 1014.3
20260901080304 63 63 0.0 1.0 0.00 0.08 0.00 86 1014.3
20260901075307 63 63 0.0 2.0 0.00 0.08 0.00 85 1014.3
20260901074304 63 63 0.0 0.0 0.00 0.08 0.00 85 1014.3
20260901073804 63 63 0.0 1.0 0.00 0.08 0.00 85 1014.3
20260901072309 64 63 2.0 3.0 0.00 0.08 0.00 83 1014.3
20260901071304 64 206 2.0 3.0 0.00 0.08 0.00 84 1014.3
20260901070804 64 202 2.0 3.0 0.00 0.08 0.00 84 1014.3
20260901065804 64 116 0.0 2.0 0.00 0.08 0.00 84 1014.3
20260901064804 64 113 0.0 2.0 0.00 0.08 0.00 83 1014.3
20260901064304 64 111 2.0 5.0 0.00 0.08 0.00 83 1014.3
20260901063804 64 111 2.0 3.0 0.00 0.08 0.00 83 1014.3
20260901062309 64 171 4.0 7.0 0.00 0.08 0.00 82 1014.3
20260901061804 64 169 5.0 7.0 0.00 0.08 0.00 81 1014.3
20260901061304 63 209 5.0 12.0 0.00 0.08 0.00 81 1014.3
20260901060304 63 173 3.0 5.0 0.00 0.08 0.00 82 1014.3
20260901055804 63 211 2.0 3.0 0.00 0.08 0.08 82 1014.3
20260901054803 63 259 1.0 2.0 0.00 0.08 0.08 82 1014.3
20260901054304 63 259 0.0 2.0 0.00 0.08 0.08 81 1014.3
20260901053804 63 259 0.0 2.0 0.00 0.08 0.08 81 1014.3
20260901053304 63 259 1.0 3.0 0.00 0.08 0.08 82 1014.3
20260901052804 63 259 0.0 2.0 0.00 0.08 0.08 81 1014.3
20260901051804 63 259 2.0 3.0 0.00 0.08 0.08 81 1014.3
20260901051304 63 250 1.0 3.0 0.00 0.08 0.08 81 1014.3
20260901050804 63 263 2.0 5.0 0.00 0.08 0.08 81 1014.3
20260901050304 63 302 1.0 5.0 0.00 0.08 0.08 80 1014.3
20260901045306 63 270 3.0 6.0 0.00 0.08 0.08 79 1014.3
20260901044304 64 311 3.0 7.0 0.00 0.08 0.08 77 1014.3
20260901043804 64 309 2.0 5.0 0.00 0.08 0.08 77 1014.3
20260901042804 65 248 2.0 5.0 0.00 0.08 0.08 74 1014.3
20260901040804 64 188 3.0 7.0 0.01 0.08 0.08 77 1014.3
20260901035803 64 27 4.0 7.0 0.02 0.08 0.08 81 1014.3
20260901035305 63 29 2.0 3.0 0.02 0.08 0.08 82 1014.3
20260901034804 63 353 2.0 5.0 0.02 0.08 0.08 83 1014.3
20260901033804 63 288 3.0 6.0 0.02 0.08 0.08 81 1014.3
20260901032803 63 245 6.0 10.0 0.02 0.08 0.08 81 1014.3
20260901031805 64 257 5.0 8.0 0.01 0.07 0.07 79 1014.3
20260901031304 64 238 4.0 7.0 0.01 0.07 0.07 80 1014.3
20260901024804 69 218 8.0 15.0 0.00 0.06 0.06 64 1014.3
20260901024304 69 227 7.0 12.0 0.00 0.06 0.06 67 1014.3
20260901023303 68 225 4.0 10.0 0.00 0.06 0.06 69 1014.3
20260901022306 67 230 3.0 6.0 0.00 0.06 0.06 75 1014.3
20260901021303 67 0 2.0 3.0 0.01 0.06 0.06 73 1014.3
20260901020804 67 17 2.0 3.0 0.03 0.06 0.06 72 1014.3
20260901015803 67 353 3.0 10.0 0.06 0.06 0.06 73 1014.3
20260901014804 66 326 6.0 10.0 0.06 0.06 0.06 76 1014.3
20260901012804 64 321 1.0 3.0 0.06 0.06 0.06 82 1014.3
20260901011304 67 282 6.0 15.0 0.05 0.05 0.05 69 1014.3
20260901010304 73 296 5.0 23.0 0.01 0.01 0.01 54 1013.5
20260901005805 78 260 7.0 21.0 0.00 0.00 0.00 42 1013.5
20260901002803 82 90 4.0 12.0 0.00 0.00 0.00 31 1013.5
20260901002305 82 93 4.0 9.0 0.00 0.00 0.00 31 1013.5
20260901001304 82 80 5.0 13.0 0.00 0.00 0.00 30 1013.5
20260831234804 83 118 5.0 8.0 0.00 0.00 0.00 29 1013.5
20260831233804 84 124 5.0 8.0 0.00 0.00 0.00 29 1013.5
20260831231804 86 146 7.0 12.0 0.00 0.00 0.00 27 1013.5
20260831230303 84 112 4.0 9.0 0.00 0.00 0.00 27 1013.5
20260831225306 86 126 5.0 9.0 0.00 0.00 0.00 28 1013.5
20260831224804 85 156 2.0 12.0 0.00 0.00 0.00 31 1013.5
20260831223304 84 102 7.0 12.0 0.00 0.00 0.00 29 1013.5
20260831222306 84 79 7.0 13.0 0.00 0.00 0.00 29 1013.5
20260831220804 84 42 3.0 9.0 0.00 0.00 0.00 31 1013.5
20260831215804 83 147 2.0 6.0 0.00 0.00 0.00 30 1013.5
20260831215306 83 46 4.0 7.0 0.00 0.00 0.00 30 1013.5
20260831213804 82 35 5.0 10.0 0.00 0.00 0.00 33 1013.5
20260831213304 82 37 3.0 6.0 0.00 0.00 0.00 31 1013.5
20260831212306 82 59 2.0 7.0 0.00 0.00 0.00 32 1013.5
20260831211304 82 107 3.0 6.0 0.00 0.00 0.00 34 1013.5
20260831210804 82 55 4.0 7.0 0.00 0.00 0.00 34 1013.5
20260831210304 82 50 4.0 7.0 0.00 0.00 0.00 37 1013.5
20260831205803 81 59 4.0 8.0 0.00 0.00 0.00 35 1013.5
20260831205305 81 37 4.0 6.0 0.00 0.00 0.00 36 1013.5
20260831204804 81 44 4.0 6.0 0.00 0.00 0.00 34 1013.5
20260831201804 81 125 3.0 7.0 0.00 0.02 0.00 34 1013.5
20260831200303 81 75 3.0 7.0 0.00 0.02 0.00 35 1013.5
20260831195804 81 131 3.0 7.0 0.00 0.02 0.00 34 1013.5
20260831195306 81 59 2.0 6.0 0.00 0.02 0.00 36 1013.5
20260831194804 81 88 1.0 5.0 0.00 0.02 0.00 36 1013.5
20260831193803 80 140 1.0 3.0 0.00 0.02 0.00 33 1013.5
20260831192803 80 142 2.0 5.0 0.00 0.02 0.00 36 1013.5
20260831191304 79 189 0.0 3.0 0.00 0.02 0.00 36 1013.5
20260831185804 79 100 2.0 6.0 0.00 0.02 0.00 37 1013.5
20260831184804 79 126 0.0 2.0 0.00 0.02 0.00 37 1013.5
20260831184304 79 304 0.0 1.0 0.00 0.02 0.00 37 1013.5
20260831183304 79 201 0.0 1.0 0.00 0.02 0.00 35 1013.5
20260831182803 78 201 1.0 2.0 0.00 0.02 0.00 35 1013.5
20260831181804 78 150 0.0 3.0 0.00 0.02 0.00 36 1013.5
20260831180303 77 111 1.0 3.0 0.00 0.02 0.00 39 1013.5
20260831175803 77 147 0.0 1.0 0.00 0.02 0.00 39 1013.5
20260831174803 76 83 0.0 3.0 0.00 0.02 0.00 42 1013.5
20260831174304 76 112 1.0 5.0 0.00 0.02 0.00 38 1013.5
20260831173803 77 140 1.0 3.0 0.00 0.02 0.00 41 1013.5
20260831171803 76 95 3.0 6.0 0.00 0.02 0.00 43 1013.5
20260831164304 77 105 5.0 7.0 0.00 0.02 0.00 47 1013.5
20260831163804 77 78 4.0 7.0 0.00 0.02 0.00 42 1013.5
20260831163304 77 132 1.0 6.0 0.00 0.02 0.00 39 1013.5
20260831162803 76 34 3.0 5.0 0.00 0.02 0.00 40 1013.5
20260831161804 77 314 1.0 3.0 0.00 0.02 0.00 43 1013.5
20260831161304 77 262 0.0 3.0 0.00 0.02 0.00 38 1013.5
20260831160804 77 263 3.0 3.0 0.00 0.02 0.00 38 1013.5
20260831154804 75 315 1.0 3.0 0.00 0.02 0.00 48 1013.5
20260831154304 74 301 1.0 3.0 0.00 0.02 0.00 47 1013.5
20260831153804 74 41 2.0 3.0 0.00 0.02 0.00 48 1013.5
20260831152804 74 355 2.0 3.0 0.00 0.02 0.00 50 1013.5
20260831151805 74 92 1.0 2.0 0.00 0.02 0.00 53 1013.5
20260831151304 74 132 0.0 3.0 0.00 0.02 0.00 46 1013.5
20260831150804 73 192 2.0 3.0 0.00 0.02 0.00 47 1013.5
20260831145803 72 231 1.0 3.0 0.00 0.02 0.00 52 1013.5
20260831144304 71 194 2.0 3.0 0.00 0.02 0.00 54 1013.5
20260831143305 69 210 2.0 3.0 0.00 0.02 0.00 57 1013.5
20260831142805 69 356 0.0 1.0 0.00 0.02 0.00 60 1013.5
20260831141805 68 355 1.0 2.0 0.00 0.02 0.00 60 1013.5
20260831141305 68 355 2.0 3.0 0.00 0.02 0.00 62 1013.5
20260831135805 67 207 0.0 2.0 0.00 0.02 0.00 62 1013.5
20260831135306 67 207 2.0 3.0 0.00 0.02 0.00 62 1013.5
20260831134804 66 202 2.0 3.0 0.00 0.02 0.00 62 1013.5
20260831134305 66 166 0.0 2.0 0.00 0.02 0.00 63 1013.5
20260831133804 66 203 2.0 3.0 0.00 0.02 0.00 64 1013.5
20260831132306 64 162 2.0 2.0 0.00 0.02 0.00 70 1013.5
20260831130805 62 162 0.0 1.0 0.00 0.02 0.00 71 1013.5
20260831125306 61 221 1.0 2.0 0.00 0.02 0.00 72 1013.5
20260831124305 61 221 0.0 2.0 0.00 0.02 0.00 72 1013.5
20260831123805 61 221 1.0 2.0 0.00 0.02 0.00 72 1013.5
20260831121305 61 5 0.0 0.0 0.00 0.02 0.00 72 1013.5
20260831120306 61 5 0.0 3.0 0.00 0.02 0.00 72 1013.5
20260831115804 61 336 0.0 2.0 0.00 0.02 0.00 72 1013.5
20260831115306 62 336 2.0 3.0 0.00 0.02 0.00 71 1013.5
20260831114804 62 225 1.0 3.0 0.00 0.02 0.00 69 1013.5
20260831114305 62 225 2.0 3.0 0.00 0.02 0.00 70 1013.5